Location: Lachaise
(45.8833°N, 1.8500°E)
Time: 00:51:11
(UTC+00:00)

CRYOSAT 2 - Pass Details

Date: 07 June 2020
Orbit: 712 x 725 km, 92.0° (Epoch: 11 July)

Event Time Altitude Azimuth Distance (km) Brightness Sun altitude
Rises 02:01:02 0° 2° (N) 3,149 8.8 -15.3°
Reaches altitude 10° 02:03:21 10° 1° (N) 2,222 7.8 -15.1°
Maximum altitude 02:08:14 73° 278° (W) 757 4.4 -14.6°
Enters shadow 02:11:30 21° 196° (SSW) 1,583 5.6 -14.3°
